User: anonymous   Login
Location: Unspecified
(0.0000°N, 0.0000°E)
Time: 00:59:46
(UTC+00:00)
Language:

SAUDISAT 1B - Orbit

View from above orbital plane
View from above orbital plane
View from above satellite
View from above satellite

Ground track
Ground track

The orbit data is extracted from the following two-line orbital elements,

1 26549U 00057E   21023.35324097  .00000002  00000-0  18398-4 0  9994
2 26549  64.5526   6.2057 0042899 220.2791 139.5135 14.83727413 98656
Epoch (UTC): 23 January 2021 08:28:40
Eccentricity: 0.0042899
inclination: 64.5526°
perigee height: 587 km
apogee height: 647 km
right ascension of ascending node: 6.2057°
argument of perigee: 220.2791°
revolutions per day: 14.83727413
mean anomaly at epoch: 139.5135°
orbit number at epoch: 9865

The dashed part of the orbit path shows where the satellite is in the earth's shadow,  

DLR